Tracking 20083 objects as of 8-Dec-2019
HD Live streaming from Space Station
objects crossing your sky now

FENGYUN 1C DEB

Track FENGYUN 1C DEB now!
10-day predictions


NORAD ID: 31710
Int'l Code: 1999-025CDH
Perigee: 474.6 km
Apogee: 597.1 km
Inclination: 99.0 °
Period: 95.2 minutes
Semi major axis: 6906 km
RCS: 0.0102 m2 (small)
Launch date: May 10, 1999
Source: People's Republic of China (PRC)
Launch site: Taiyaun Space Center, China (TSC)

Note: This is SATELLITE DEBRIS
aabbcc
Your satellite tracking list
Your tracking list is empty




NASA's NSSDC Master Catalog

Two Line Element Set (TLE):
1 31710U 99025CDH 19341.51097336  .00003431  00000-0  18450-3 0  9991
2 31710  98.9715 231.3685 0088649 254.0143 105.1304 15.12464028678463
Source of the keplerian elements: AFSPC